Location: Bijele Vode
(45.2833°N, 16.2000°E)
Time: 11:55:15
(UTC+00:00)

CENTAUR R/B - Pass Details

Date: 25 January 2021
Orbit: 742 x 1446 km, 63.5° (Epoch: 02 March)

Event Time Altitude Azimuth Distance (km) Brightness Sun altitude
Rises 03:16:59 0° 158° (SSE) 3,344 5.5 -32.6°
Reaches altitude 10° 03:20:31 10° 133° (SE) 2,527 5.1 -32.0°
Maximum altitude 03:23:27 14° 103° (ESE) 2,343 5.2 -31.5°
Drops below altitude 10° 03:26:35 10° 73° (ENE) 2,755 5.7 -30.9°
Sets 03:30:45 0° 51° (NE) 3,876 6.4 -30.2°
